Starlink 6262

operational
NORAD ID: 57091 Int'l Des: 2023-088 Owner: SPXS Country: US Constellation: starlink
LEOCIRCULAR

Über Starlink 6262

Beschreibung wird geladen...

Live-Position

3D-Globus wird geladen...

Nächste Überflüge

Höhenverlauf

Altitude vs Time

uPlot chart will show altitude changes over time

Zweizeiliger Elementsatz

1 57091U 23088AV 25260.19759785 -.00003358 00000-0 -23368-3 0 9995
2 57091 43.0072 317.0277 0001966 263.7941 96.2677 15.02522139124421
Epoch: 17. Sept. 2025 • Age: 22 hours

Aktueller Status

Höhe 568.0 km
Geschwindigkeit 7.58 km/s
Subsatellitenpunkt -34.82°S, 135.55°W
Startdatum 22. Juni 2023
Alter 2.2 years
Typ internet

Technische Details

Klassifizierung Payload
Masse 305.00 kg
Trockenmasse 290.00 kg
Gesamtmasse 305.00 kg
Länge 0.20 m
Durchmesser 2.80 m
Spannweite 9.00 m
Form Box + pan
Hersteller SPXS
Bus-Typ Starlink
Phasenstatus In Orbit
Besitzer/Staat SPXS/US

Große Konstellationen

Loading constellations...